| time (UTC) | temp F | wind direction | speed MPH | gust MPH | rain 1hr in | rain 24hr in | rain mn in | humidity % | barometer mb |
| 20260508111247 | 35 | 269 | 0.0 | 0.0 | 0.00 | 0.00 | 0.00 | 98 | 1021.1 |
| 20260508110744 | 35 | 268 | 0.0 | 0.0 | 0.00 | 0.00 | 0.00 | 98 | 1021.0 |
| 20260508110242 | 34 | 268 | 0.0 | 0.0 | 0.00 | 0.00 | 0.00 | 98 | 1020.9 |
| 20260508105741 | 34 | 267 | 0.0 | 0.0 | 0.00 | 0.00 | 0.00 | 98 | 1021.1 |
| 20260508105238 | 34 | 263 | 0.0 | 0.0 | 0.00 | 0.00 | 0.00 | 98 | 1021.0 |
| 20260508104735 | 33 | 266 | 0.0 | 0.0 | 0.00 | 0.00 | 0.00 | 98 | 1020.9 |
| 20260508104232 | 32 | 266 | 0.0 | 0.0 | 0.00 | 0.00 | 0.00 | 98 | 1021.0 |
| 20260508103730 | 32 | 266 | 0.0 | 0.0 | 0.00 | 0.00 | 0.00 | 98 | 1020.8 |
| 20260508103226 | 32 | 266 | 0.0 | 0.0 | 0.00 | 0.00 | 0.00 | 98 | 1020.6 |
| 20260508102723 | 33 | 266 | 0.0 | 0.0 | 0.00 | 0.00 | 0.00 | 98 | 1020.6 |
| 20260508102222 | 33 | 266 | 0.0 | 0.0 | 0.00 | 0.00 | 0.00 | 98 | 1020.6 |
| 20260508101718 | 33 | 267 | 0.0 | 0.0 | 0.00 | 0.00 | 0.00 | 98 | 1020.8 |
| 20260508101216 | 33 | 267 | 0.0 | 0.0 | 0.00 | 0.00 | 0.00 | 98 | 1020.5 |
| 20260508100714 | 33 | 266 | 0.0 | 0.0 | 0.00 | 0.00 | 0.00 | 98 | 1020.8 |
| 20260508100212 | 33 | 267 | 0.0 | 0.0 | 0.00 | 0.00 | 0.00 | 98 | 1020.5 |
| 20260508095707 | 33 | 267 | 0.0 | 0.0 | 0.00 | 0.00 | 0.00 | 98 | 1020.5 |
| 20260508095205 | 33 | 266 | 0.0 | 0.0 | 0.00 | 0.00 | 0.00 | 98 | 1020.4 |
| 20260508094701 | 33 | 266 | 0.0 | 0.0 | 0.00 | 0.00 | 0.00 | 98 | 1020.5 |
| 20260508094159 | 33 | 266 | 0.0 | 0.0 | 0.00 | 0.00 | 0.00 | 98 | 1020.3 |
| 20260508093655 | 33 | 266 | 0.0 | 0.0 | 0.00 | 0.00 | 0.00 | 98 | 1020.4 |
| 20260508093154 | 34 | 255 | 0.0 | 0.0 | 0.00 | 0.00 | 0.00 | 98 | 1020.3 |
| 20260508092650 | 34 | 275 | 0.0 | 0.0 | 0.00 | 0.00 | 0.00 | 98 | 1020.4 |
| 20260508092149 | 34 | 197 | 0.0 | 0.0 | 0.00 | 0.00 | 0.00 | 98 | 1020.3 |
| 20260508091646 | 34 | 243 | 0.0 | 0.0 | 0.00 | 0.00 | 0.00 | 98 | 1020.3 |
| 20260508091143 | 34 | 226 | 0.0 | 0.0 | 0.00 | 0.00 | 0.00 | 98 | 1020.3 |
| 20260508090641 | 34 | 266 | 0.0 | 0.0 | 0.00 | 0.00 | 0.00 | 98 | 1020.2 |
| 20260508090137 | 34 | 266 | 0.0 | 0.0 | 0.00 | 0.00 | 0.00 | 98 | 1020.2 |
| 20260508085633 | 34 | 264 | 0.0 | 0.0 | 0.00 | 0.00 | 0.00 | 98 | 1020.1 |
| 20260508085131 | 35 | 260 | 0.0 | 0.0 | 0.00 | 0.00 | 0.00 | 98 | 1020.0 |
| 20260508084627 | 35 | 253 | 0.0 | 0.0 | 0.00 | 0.00 | 0.00 | 98 | 1020.2 |
| 20260508084125 | 35 | 253 | 0.0 | 0.0 | 0.00 | 0.00 | 0.00 | 98 | 1020.0 |
| 20260508083622 | 35 | 263 | 0.0 | 0.0 | 0.00 | 0.00 | 0.00 | 98 | 1020.1 |
| 20260508083119 | 35 | 256 | 0.0 | 0.0 | 0.00 | 0.00 | 0.00 | 98 | 1020.3 |
| 20260508082614 | 34 | 266 | 0.0 | 0.0 | 0.00 | 0.00 | 0.00 | 98 | 1020.1 |
| 20260508082112 | 34 | 201 | 0.0 | 0.0 | 0.00 | 0.00 | 0.00 | 98 | 1020.1 |
| 20260508081609 | 34 | 201 | 0.0 | 0.0 | 0.00 | 0.00 | 0.00 | 98 | 1019.9 |
| 20260508081105 | 34 | 201 | 0.0 | 0.0 | 0.00 | 0.00 | 0.00 | 98 | 1019.9 |
| 20260508080603 | 34 | 201 | 0.0 | 0.0 | 0.00 | 0.00 | 0.00 | 98 | 1019.8 |
| 20260508080101 | 35 | 201 | 0.0 | 0.0 | 0.00 | 0.00 | 0.00 | 98 | 1019.9 |
| 20260508075557 | 35 | 201 | 0.0 | 0.0 | 0.00 | 0.00 | 0.00 | 98 | 1019.8 |
| 20260508075054 | 35 | 201 | 0.0 | 0.0 | 0.00 | 0.00 | 0.00 | 98 | 1019.7 |
| 20260508074552 | 35 | 201 | 0.0 | 0.0 | 0.00 | 0.00 | 0.00 | 98 | 1020.0 |
| 20260508074049 | 34 | 201 | 0.0 | 0.0 | 0.00 | 0.00 | 0.00 | 97 | 1019.9 |
| 20260508073546 | 35 | 201 | 0.0 | 0.0 | 0.00 | 0.00 | 0.00 | 97 | 1019.8 |
| 20260508073044 | 35 | 201 | 0.0 | 0.0 | 0.00 | 0.00 | 0.00 | 97 | 1019.8 |
| 20260508072539 | 35 | 201 | 0.0 | 0.0 | 0.00 | 0.00 | 0.00 | 97 | 1020.0 |
| 20260508072037 | 35 | 201 | 0.0 | 0.0 | 0.00 | 0.00 | 0.00 | 97 | 1019.8 |
| 20260508071535 | 35 | 201 | 0.0 | 0.0 | 0.00 | 0.00 | 0.00 | 97 | 1019.9 |
| 20260508071032 | 35 | 200 | 0.0 | 0.0 | 0.00 | 0.00 | 0.00 | 97 | 1019.6 |
| 20260508070530 | 35 | 200 | 0.0 | 0.0 | 0.00 | 0.00 | 0.00 | 97 | 1019.7 |
| 20260508070028 | 35 | 200 | 0.0 | 0.0 | 0.00 | 0.00 | 0.00 | 97 | 1019.5 |
| 20260508065525 | 35 | 204 | 0.0 | 0.0 | 0.00 | 0.00 | 0.00 | 97 | 1019.7 |
| 20260508065024 | 35 | 204 | 0.0 | 0.0 | 0.00 | 0.00 | 0.00 | 97 | 1019.7 |
| 20260508064520 | 35 | 204 | 0.0 | 0.0 | 0.00 | 0.00 | 0.00 | 97 | 1019.8 |
| 20260508064018 | 35 | 204 | 0.0 | 0.0 | 0.00 | 0.00 | 0.00 | 97 | 1019.8 |
| 20260508063515 | 36 | 204 | 0.0 | 0.0 | 0.00 | 0.00 | 0.00 | 97 | 1019.8 |
| 20260508063013 | 36 | 204 | 0.0 | 0.0 | 0.00 | 0.00 | 0.00 | 97 | 1019.7 |
| 20260508062510 | 36 | 204 | 0.0 | 0.0 | 0.00 | 0.00 | 0.00 | 97 | 1020.0 |
| 20260508062006 | 36 | 204 | 0.0 | 0.0 | 0.00 | 0.00 | 0.00 | 97 | 1019.8 |
| 20260508061505 | 36 | 204 | 0.0 | 0.0 | 0.00 | 0.00 | 0.00 | 97 | 1019.9 |
| 20260508061000 | 36 | 204 | 0.0 | 0.0 | 0.00 | 0.00 | 0.00 | 97 | 1019.9 |
| 20260508060458 | 36 | 204 | 0.0 | 0.0 | 0.00 | 0.00 | 0.00 | 97 | 1019.9 |
| 20260508055954 | 36 | 204 | 0.0 | 0.0 | 0.00 | 0.00 | 0.00 | 97 | 1020.0 |
| 20260508055451 | 36 | 204 | 0.0 | 0.0 | 0.00 | 0.00 | 0.00 | 97 | 1020.0 |
| 20260508054947 | 36 | 204 | 0.0 | 0.0 | 0.00 | 0.00 | 0.00 | 97 | 1020.0 |
| 20260508054445 | 36 | 204 | 0.0 | 0.0 | 0.00 | 0.00 | 0.00 | 97 | 1020.0 |
| 20260508053941 | 36 | 204 | 0.0 | 0.0 | 0.00 | 0.00 | 0.00 | 97 | 1020.0 |
| 20260508053438 | 37 | 204 | 0.0 | 0.0 | 0.00 | 0.00 | 0.00 | 97 | 1019.9 |
| 20260508052936 | 37 | 204 | 0.0 | 0.0 | 0.00 | 0.00 | 0.00 | 97 | 1019.9 |
| 20260508052433 | 37 | 204 | 0.0 | 0.0 | 0.00 | 0.00 | 0.00 | 96 | 1019.9 |
| 20260508051929 | 37 | 204 | 0.0 | 0.0 | 0.00 | 0.00 | 0.00 | 96 | 1020.0 |
| 20260508051425 | 37 | 204 | 0.0 | 0.0 | 0.00 | 0.00 | 0.00 | 96 | 1019.9 |
| 20260508050921 | 37 | 204 | 0.0 | 0.0 | 0.00 | 0.00 | 0.00 | 96 | 1019.7 |
| 20260508050419 | 37 | 204 | 0.0 | 0.0 | 0.00 | 0.00 | 0.00 | 96 | 1019.6 |
| 20260508045915 | 38 | 204 | 0.0 | 0.0 | 0.00 | 0.00 | 0.00 | 96 | 1019.5 |
| 20260508045413 | 38 | 204 | 0.0 | 0.0 | 0.00 | 0.00 | 0.00 | 96 | 1019.4 |
| 20260508044910 | 38 | 204 | 0.0 | 0.0 | 0.00 | 0.00 | 0.00 | 96 | 1019.4 |
| 20260508044407 | 38 | 204 | 0.0 | 0.0 | 0.00 | 0.00 | 0.00 | 96 | 1019.1 |
| 20260508043902 | 38 | 204 | 0.0 | 0.0 | 0.00 | 0.00 | 0.00 | 96 | 1019.1 |
| 20260508043400 | 38 | 204 | 0.0 | 0.0 | 0.00 | 0.00 | 0.00 | 96 | 1018.9 |
| 20260508042856 | 39 | 204 | 0.0 | 0.0 | 0.00 | 0.00 | 0.00 | 96 | 1019.4 |
| 20260508042354 | 39 | 204 | 0.0 | 0.0 | 0.00 | 0.00 | 0.00 | 96 | 1019.3 |
| 20260508041851 | 39 | 204 | 0.0 | 0.0 | 0.00 | 0.00 | 0.00 | 96 | 1019.1 |
| 20260508041347 | 39 | 204 | 0.0 | 0.0 | 0.00 | 0.00 | 0.00 | 95 | 1019.1 |
| 20260508040844 | 39 | 204 | 0.0 | 0.0 | 0.00 | 0.00 | 0.00 | 95 | 1018.9 |
| 20260508040341 | 39 | 204 | 0.0 | 0.0 | 0.00 | 0.00 | 0.00 | 95 | 1019.3 |
| 20260508035838 | 39 | 204 | 0.0 | 0.0 | 0.00 | 0.01 | 0.01 | 95 | 1019.0 |
| 20260508035335 | 39 | 204 | 0.0 | 0.0 | 0.00 | 0.01 | 0.01 | 95 | 1019.0 |
| 20260508034832 | 40 | 204 | 0.0 | 0.0 | 0.00 | 0.01 | 0.01 | 95 | 1018.8 |
| 20260508034329 | 40 | 204 | 0.0 | 0.0 | 0.00 | 0.01 | 0.01 | 95 | 1018.9 |
| 20260508033826 | 40 | 204 | 0.0 | 0.0 | 0.00 | 0.01 | 0.01 | 95 | 1018.9 |
| 20260508033325 | 40 | 204 | 0.0 | 0.0 | 0.00 | 0.01 | 0.01 | 94 | 1019.1 |
| 20260508032822 | 40 | 204 | 0.0 | 0.0 | 0.00 | 0.01 | 0.01 | 94 | 1018.8 |
| 20260508032319 | 40 | 204 | 0.0 | 0.0 | 0.00 | 0.01 | 0.01 | 94 | 1018.9 |
| 20260508031815 | 40 | 204 | 0.0 | 0.0 | 0.00 | 0.01 | 0.01 | 94 | 1018.8 |
| 20260508031312 | 41 | 204 | 0.0 | 0.0 | 0.00 | 0.01 | 0.01 | 94 | 1018.8 |
| 20260508030808 | 41 | 204 | 0.0 | 0.0 | 0.00 | 0.01 | 0.01 | 93 | 1018.9 |
| 20260508030306 | 41 | 204 | 0.0 | 0.0 | 0.00 | 0.01 | 0.01 | 93 | 1018.9 |
| 20260508025802 | 41 | 204 | 0.0 | 0.0 | 0.00 | 0.01 | 0.01 | 93 | 1018.5 |
| 20260508025300 | 41 | 204 | 0.0 | 0.0 | 0.00 | 0.01 | 0.01 | 93 | 1018.6 |
| 20260508024755 | 41 | 204 | 0.0 | 0.0 | 0.00 | 0.01 | 0.01 | 93 | 1018.6 |
| 20260508024252 | 41 | 204 | 0.0 | 0.0 | 0.00 | 0.01 | 0.01 | 93 | 1018.3 |
| 20260508023750 | 41 | 204 | 0.0 | 0.0 | 0.00 | 0.01 | 0.01 | 92 | 1018.4 |
| 20260508023247 | 41 | 204 | 0.0 | 0.0 | 0.00 | 0.01 | 0.01 | 92 | 1018.4 |
| 20260508022742 | 42 | 204 | 0.0 | 0.0 | 0.00 | 0.01 | 0.01 | 92 | 1018.4 |
| 20260508022239 | 42 | 204 | 0.0 | 0.0 | 0.00 | 0.01 | 0.01 | 92 | 1018.2 |
| 20260508021736 | 42 | 204 | 0.0 | 0.0 | 0.00 | 0.01 | 0.01 | 91 | 1018.1 |
| 20260508021226 | 42 | 196 | 0.0 | 0.0 | 0.00 | 0.01 | 0.01 | 91 | 1018.2 |
| 20260508020723 | 42 | 196 | 0.0 | 0.0 | 0.00 | 0.01 | 0.01 | 90 | 1018.0 |
| 20260508020221 | 43 | 196 | 0.0 | 0.0 | 0.00 | 0.01 | 0.01 | 90 | 1017.9 |
| 20260508015718 | 43 | 196 | 0.0 | 0.0 | 0.00 | 0.01 | 0.01 | 90 | 1018.0 |
| 20260508015215 | 43 | 196 | 0.0 | 0.0 | 0.00 | 0.01 | 0.01 | 89 | 1017.9 |
| 20260508014712 | 43 | 213 | 0.0 | 0.0 | 0.00 | 0.01 | 0.01 | 89 | 1017.9 |
| 20260508014209 | 43 | 213 | 0.0 | 0.0 | 0.00 | 0.01 | 0.01 | 88 | 1017.7 |
| 20260508013704 | 44 | 213 | 0.0 | 0.0 | 0.00 | 0.01 | 0.01 | 88 | 1017.7 |
| 20260508013201 | 44 | 213 | 0.0 | 0.0 | 0.00 | 0.01 | 0.01 | 87 | 1017.7 |
| 20260508012659 | 44 | 213 | 0.0 | 0.0 | 0.00 | 0.01 | 0.01 | 86 | 1017.4 |
| 20260508012155 | 45 | 213 | 0.0 | 0.0 | 0.00 | 0.01 | 0.01 | 86 | 1017.3 |
| 20260508011654 | 45 | 213 | 0.0 | 0.0 | 0.00 | 0.01 | 0.01 | 85 | 1017.3 |
| 20260508011151 | 45 | 213 | 0.0 | 0.0 | 0.00 | 0.01 | 0.01 | 84 | 1017.3 |
| 20260508010647 | 46 | 213 | 0.0 | 0.0 | 0.00 | 0.01 | 0.01 | 84 | 1017.2 |
| 20260508010145 | 46 | 213 | 0.0 | 0.0 | 0.00 | 0.01 | 0.01 | 83 | 1017.2 |
| 20260508005642 | 47 | 265 | 0.0 | 0.0 | 0.00 | 0.01 | 0.01 | 81 | 1017.2 |
| 20260508005139 | 47 | 252 | 0.0 | 0.0 | 0.00 | 0.01 | 0.01 | 80 | 1017.4 |
| 20260508004634 | 48 | 247 | 0.0 | 0.0 | 0.00 | 0.01 | 0.01 | 79 | 1017.1 |
| 20260508004131 | 49 | 256 | 0.0 | 0.0 | 0.00 | 0.01 | 0.01 | 77 | 1016.9 |
| 20260508003627 | 49 | 277 | 0.0 | 0.0 | 0.00 | 0.01 | 0.01 | 75 | 1016.9 |
| 20260508003125 | 50 | 247 | 0.0 | 0.0 | 0.00 | 0.01 | 0.01 | 73 | 1016.8 |
| 20260508002621 | 50 | 310 | 0.0 | 0.0 | 0.00 | 0.01 | 0.01 | 71 | 1016.9 |
| 20260508002119 | 51 | 35 | 0.0 | 0.0 | 0.00 | 0.01 | 0.01 | 70 | 1016.9 |
| 20260508001614 | 52 | 262 | 0.0 | 0.0 | 0.00 | 0.01 | 0.01 | 70 | 1017.0 |
| 20260508001110 | 52 | 250 | 0.0 | 0.0 | 0.00 | 0.01 | 0.01 | 68 | 1016.8 |
| 20260508000606 | 52 | 215 | 0.0 | 0.0 | 0.00 | 0.01 | 0.01 | 68 | 1016.7 |
| 20260508000104 | 52 | 247 | 0.0 | 0.0 | 0.00 | 0.01 | 0.01 | 67 | 1016.9 |
| 20260507235600 | 53 | 262 | 0.0 | 0.0 | 0.00 | 0.01 | 0.01 | 68 | 1016.8 |
| 20260507235057 | 53 | 262 | 0.0 | 2.0 | 0.00 | 0.01 | 0.01 | 68 | 1016.8 |
| 20260507234554 | 53 | 255 | 0.0 | 0.0 | 0.00 | 0.01 | 0.01 | 68 | 1016.7 |
| 20260507234050 | 53 | 239 | 0.0 | 2.0 | 0.00 | 0.01 | 0.01 | 66 | 1016.6 |
| 20260507233547 | 54 | 250 | 0.0 | 0.0 | 0.00 | 0.01 | 0.01 | 66 | 1016.8 |
| 20260507233046 | 54 | 239 | 0.0 | 0.0 | 0.00 | 0.01 | 0.01 | 65 | 1016.6 |
| 20260507232542 | 55 | 256 | 0.0 | 2.0 | 0.00 | 0.01 | 0.01 | 64 | 1016.4 |
| 20260507232040 | 55 | 249 | 0.0 | 2.0 | 0.00 | 0.01 | 0.01 | 63 | 1016.5 |
| 20260507231536 | 56 | 204 | 0.0 | 3.0 | 0.00 | 0.01 | 0.01 | 63 | 1016.6 |
| 20260507231034 | 56 | 264 | 0.0 | 3.0 | 0.00 | 0.01 | 0.01 | 63 | 1016.7 |
| 20260507230530 | 55 | 240 | 0.0 | 4.0 | 0.00 | 0.01 | 0.01 | 64 | 1016.5 |
| 20260507230027 | 55 | 262 | 0.0 | 2.0 | 0.00 | 0.01 | 0.01 | 63 | 1016.2 |
| 20260507225521 | 56 | 269 | 7.0 | 8.0 | 0.00 | 0.01 | 0.01 | 61 | 1016.4 |
| 20260507225018 | 57 | 290 | 1.0 | 4.0 | 0.00 | 0.01 | 0.01 | 61 | 1016.6 |
| 20260507224514 | 57 | 258 | 3.0 | 6.0 | 0.00 | 0.01 | 0.01 | 61 | 1016.5 |
| 20260507224010 | 57 | 266 | 0.0 | 1.0 | 0.00 | 0.01 | 0.01 | 61 | 1016.4 |
| 20260507223507 | 57 | 320 | 3.0 | 7.0 | 0.00 | 0.01 | 0.01 | 61 | 1016.4 |
| 20260507223004 | 57 | 189 | 3.0 | 9.0 | 0.00 | 0.01 | 0.01 | 62 | 1016.5 |
| 20260507222502 | 57 | 248 | 4.0 | 7.0 | 0.00 | 0.01 | 0.01 | 62 | 1016.5 |
| 20260507221957 | 56 | 194 | 0.0 | 3.0 | 0.00 | 0.01 | 0.01 | 63 | 1016.0 |
| 20260507221454 | 56 | 247 | 7.0 | 10.0 | 0.00 | 0.01 | 0.01 | 62 | 1016.2 |
| 20260507220951 | 55 | 238 | 1.0 | 6.0 | 0.00 | 0.01 | 0.01 | 65 | 1016.0 |
| 20260507220448 | 55 | 267 | 0.0 | 1.0 | 0.00 | 0.01 | 0.01 | 66 | 1016.1 |
| 20260507215945 | 55 | 265 | 3.0 | 7.0 | 0.00 | 0.01 | 0.01 | 66 | 1016.2 |
| 20260507215441 | 55 | 239 | 0.0 | 0.0 | 0.00 | 0.01 | 0.01 | 66 | 1015.9 |
| 20260507214939 | 55 | 269 | 1.0 | 3.0 | 0.00 | 0.01 | 0.01 | 67 | 1015.9 |
| 20260507214436 | 55 | 283 | 2.0 | 3.0 | 0.00 | 0.01 | 0.01 | 66 | 1015.9 |
| 20260507213932 | 55 | 225 | 0.0 | 1.0 | 0.00 | 0.01 | 0.01 | 68 | 1016.2 |
| 20260507213428 | 54 | 243 | 4.0 | 6.0 | 0.00 | 0.01 | 0.01 | 66 | 1015.9 |
| 20260507212925 | 54 | 355 | 0.0 | 3.0 | 0.00 | 0.01 | 0.01 | 67 | 1015.9 |
| 20260507212420 | 55 | 256 | 2.0 | 10.0 | 0.00 | 0.01 | 0.01 | 65 | 1015.9 |
| 20260507211918 | 54 | 274 | 2.0 | 2.0 | 0.00 | 0.01 | 0.01 | 67 | 1015.8 |
| 20260507211414 | 54 | 264 | 0.0 | 3.0 | 0.00 | 0.01 | 0.01 | 67 | 1015.6 |
| 20260507210911 | 54 | 256 | 0.0 | 4.0 | 0.00 | 0.01 | 0.01 | 67 | 1015.8 |
| 20260507210408 | 54 | 249 | 0.0 | 1.0 | 0.00 | 0.01 | 0.01 | 69 | 1015.4 |
| 20260507205904 | 54 | 261 | 0.0 | 1.0 | 0.00 | 0.01 | 0.01 | 68 | 1015.6 |
| 20260507205402 | 54 | 238 | 2.0 | 4.0 | 0.00 | 0.01 | 0.01 | 67 | 1015.6 |
| 20260507204858 | 54 | 245 | 0.0 | 0.0 | 0.00 | 0.01 | 0.01 | 68 | 1015.4 |
| 20260507204354 | 54 | 258 | 0.0 | 7.0 | 0.00 | 0.01 | 0.01 | 68 | 1015.6 |
| 20260507203852 | 54 | 280 | 1.0 | 6.0 | 0.00 | 0.01 | 0.01 | 68 | 1015.6 |
| 20260507203350 | 53 | 99 | 0.0 | 0.0 | 0.00 | 0.01 | 0.01 | 69 | 1015.5 |
| 20260507202846 | 53 | 254 | 1.0 | 4.0 | 0.00 | 0.01 | 0.01 | 69 | 1015.5 |
| 20260507202337 | 54 | 235 | 4.0 | 7.0 | 0.00 | 0.01 | 0.01 | 68 | 1015.6 |
| 20260507201832 | 53 | 244 | 2.0 | 3.0 | 0.00 | 0.01 | 0.01 | 69 | 1015.8 |
| 20260507201328 | 54 | 264 | 0.0 | 0.0 | 0.00 | 0.01 | 0.01 | 69 | 1015.8 |
| 20260507200824 | 54 | 205 | 0.0 | 6.0 | 0.00 | 0.01 | 0.01 | 68 | 1015.8 |
| 20260507200320 | 54 | 219 | 0.0 | 2.0 | 0.00 | 0.01 | 0.01 | 68 | 1015.9 |
| 20260507195816 | 54 | 247 | 0.0 | 6.0 | 0.00 | 0.01 | 0.01 | 71 | 1016.0 |
| 20260507195314 | 54 | 234 | 6.0 | 13.0 | 0.00 | 0.01 | 0.01 | 69 | 1015.8 |
| 20260507194812 | 54 | 251 | 2.0 | 7.0 | 0.00 | 0.01 | 0.01 | 69 | 1015.6 |
| 20260507194308 | 54 | 239 | 6.0 | 8.0 | 0.00 | 0.01 | 0.01 | 69 | 1015.8 |
| 20260507193805 | 54 | 245 | 0.0 | 7.0 | 0.00 | 0.01 | 0.01 | 71 | 1015.7 |
| 20260507193302 | 55 | 263 | 5.0 | 9.0 | 0.00 | 0.01 | 0.01 | 68 | 1015.8 |
| 20260507192757 | 56 | 281 | 4.0 | 8.0 | 0.00 | 0.01 | 0.01 | 66 | 1015.7 |
| 20260507192254 | 57 | 222 | 3.0 | 4.0 | 0.00 | 0.01 | 0.01 | 66 | 1015.7 |
| 20260507191750 | 56 | 256 | 3.0 | 8.0 | 0.00 | 0.01 | 0.01 | 67 | 1016.0 |
| 20260507191247 | 56 | 255 | 0.0 | 4.0 | 0.00 | 0.01 | 0.01 | 66 | 1016.1 |
| 20260507190743 | 56 | 243 | 1.0 | 2.0 | 0.00 | 0.01 | 0.01 | 67 | 1016.2 |
| 20260507190242 | 55 | 240 | 6.0 | 10.0 | 0.00 | 0.01 | 0.01 | 67 | 1016.2 |
| 20260507185740 | 54 | 293 | 1.0 | 4.0 | 0.00 | 0.01 | 0.01 | 69 | 1016.6 |
| 20260507185237 | 54 | 201 | 0.0 | 2.0 | 0.00 | 0.01 | 0.01 | 70 | 1016.4 |
| 20260507184735 | 54 | 285 | 0.0 | 3.0 | 0.00 | 0.01 | 0.01 | 70 | 1016.5 |
| 20260507184232 | 54 | 247 | 2.0 | 4.0 | 0.00 | 0.01 | 0.01 | 70 | 1016.5 |
| 20260507183729 | 54 | 275 | 1.0 | 2.0 | 0.00 | 0.01 | 0.01 | 71 | 1016.6 |
| 20260507183226 | 54 | 255 | 4.0 | 9.0 | 0.00 | 0.01 | 0.01 | 70 | 1016.5 |
| 20260507182723 | 53 | 250 | 0.0 | 8.0 | 0.00 | 0.01 | 0.01 | 69 | 1016.4 |
| 20260507182218 | 53 | 251 | 5.0 | 9.0 | 0.00 | 0.01 | 0.01 | 69 | 1016.2 |
| 20260507181715 | 53 | 266 | 0.0 | 2.0 | 0.00 | 0.01 | 0.01 | 70 | 1016.4 |
| 20260507181212 | 53 | 257 | 7.0 | 8.0 | 0.00 | 0.01 | 0.01 | 69 | 1016.5 |
| 20260507180709 | 53 | 262 | 4.0 | 6.0 | 0.00 | 0.01 | 0.01 | 70 | 1016.5 |
| 20260507180205 | 53 | 232 | 4.0 | 6.0 | 0.00 | 0.01 | 0.01 | 70 | 1016.4 |
| 20260507175700 | 53 | 226 | 2.0 | 8.0 | 0.00 | 0.01 | 0.01 | 71 | 1016.6 |
| 20260507175158 | 53 | 240 | 5.0 | 7.0 | 0.00 | 0.01 | 0.01 | 70 | 1016.1 |
| 20260507174655 | 53 | 257 | 1.0 | 7.0 | 0.00 | 0.01 | 0.01 | 72 | 1016.2 |
| 20260507174153 | 53 | 228 | 2.0 | 6.0 | 0.00 | 0.01 | 0.01 | 72 | 1016.4 |
| 20260507173650 | 53 | 263 | 2.0 | 6.0 | 0.00 | 0.01 | 0.01 | 72 | 1016.1 |
| 20260507173147 | 54 | 253 | 1.0 | 7.0 | 0.00 | 0.01 | 0.01 | 72 | 1016.5 |
| 20260507172643 | 54 | 247 | 4.0 | 6.0 | 0.00 | 0.01 | 0.01 | 71 | 1016.0 |
| 20260507172141 | 54 | 268 | 0.0 | 6.0 | 0.00 | 0.01 | 0.01 | 70 | 1016.1 |
| 20260507171641 | 54 | 59 | 0.0 | 4.0 | 0.00 | 0.01 | 0.01 | 71 | 1016.2 |
| 20260507171138 | 55 | 268 | 3.0 | 7.0 | 0.00 | 0.01 | 0.01 | 68 | 1016.1 |
| 20260507170635 | 54 | 244 | 4.0 | 4.0 | 0.00 | 0.01 | 0.01 | 70 | 1016.5 |
| 20260507170133 | 54 | 237 | 1.0 | 4.0 | 0.00 | 0.01 | 0.01 | 71 | 1016.1 |
| 20260507165628 | 55 | 244 | 1.0 | 4.0 | 0.00 | 0.01 | 0.01 | 70 | 1016.4 |
| 20260507165124 | 55 | 257 | 0.0 | 1.0 | 0.00 | 0.01 | 0.01 | 70 | 1016.4 |
| 20260507164620 | 55 | 188 | 1.0 | 3.0 | 0.00 | 0.01 | 0.01 | 71 | 1016.4 |
| 20260507164117 | 55 | 259 | 0.0 | 6.0 | 0.00 | 0.01 | 0.01 | 70 | 1016.6 |
| 20260507163615 | 54 | 263 | 1.0 | 1.0 | 0.00 | 0.01 | 0.01 | 72 | 1016.7 |
| 20260507163113 | 54 | 46 | 0.0 | 2.0 | 0.00 | 0.01 | 0.01 | 72 | 1016.7 |
| 20260507162613 | 53 | 231 | 0.0 | 0.0 | 0.00 | 0.01 | 0.01 | 72 | 1016.6 |
| 20260507162110 | 53 | 246 | 4.0 | 7.0 | 0.00 | 0.01 | 0.01 | 73 | 1016.6 |
| 20260507161606 | 53 | 207 | 0.0 | 0.0 | 0.00 | 0.01 | 0.01 | 74 | 1016.6 |
| 20260507161103 | 52 | 173 | 1.0 | 3.0 | 0.00 | 0.01 | 0.01 | 75 | 1016.6 |
| 20260507160600 | 51 | 293 | 0.0 | 3.0 | 0.00 | 0.01 | 0.01 | 75 | 1016.6 |
| 20260507160056 | 51 | 229 | 0.0 | 2.0 | 0.00 | 0.01 | 0.01 | 75 | 1016.9 |
| 20260507155551 | 51 | 270 | 0.0 | 4.0 | 0.00 | 0.01 | 0.01 | 75 | 1016.9 |
| 20260507155049 | 51 | 243 | 0.0 | 2.0 | 0.00 | 0.01 | 0.01 | 76 | 1016.8 |
| 20260507154545 | 50 | 62 | 0.0 | 0.0 | 0.00 | 0.01 | 0.01 | 77 | 1017.0 |
| 20260507154043 | 51 | 275 | 0.0 | 0.0 | 0.00 | 0.01 | 0.01 | 76 | 1017.0 |
| 20260507153539 | 50 | 236 | 0.0 | 0.0 | 0.00 | 0.01 | 0.01 | 77 | 1016.8 |
| 20260507153035 | 50 | 177 | 0.0 | 0.0 | 0.00 | 0.01 | 0.01 | 77 | 1017.0 |
| 20260507152531 | 49 | 258 | 0.0 | 0.0 | 0.00 | 0.01 | 0.01 | 78 | 1016.9 |
| 20260507152028 | 49 | 239 | 0.0 | 1.0 | 0.00 | 0.01 | 0.01 | 79 | 1016.8 |
| 20260507151524 | 49 | 280 | 0.0 | 0.0 | 0.00 | 0.01 | 0.01 | 79 | 1017.0 |
| 20260507151021 | 49 | 238 | 2.0 | 6.0 | 0.00 | 0.01 | 0.01 | 81 | 1017.1 |
| 20260507150518 | 49 | 275 | 0.0 | 0.0 | 0.00 | 0.01 | 0.01 | 81 | 1017.2 |
| 20260507150015 | 49 | 251 | 0.0 | 0.0 | 0.00 | 0.01 | 0.01 | 83 | 1017.1 |
| 20260507145510 | 49 | 352 | 0.0 | 0.0 | 0.00 | 0.01 | 0.01 | 83 | 1017.1 |
| 20260507145008 | 48 | 126 | 0.0 | 0.0 | 0.00 | 0.01 | 0.01 | 84 | 1017.2 |
| 20260507144504 | 49 | 11 | 0.0 | 0.0 | 0.00 | 0.01 | 0.01 | 86 | 1017.1 |
| 20260507144001 | 48 | 43 | 3.0 | 4.0 | 0.00 | 0.01 | 0.01 | 86 | 1017.0 |
| 20260507143459 | 48 | 233 | 0.0 | 0.0 | 0.00 | 0.01 | 0.01 | 86 | 1017.2 |
| 20260507142955 | 48 | 141 | 0.0 | 2.0 | 0.00 | 0.01 | 0.01 | 86 | 1017.3 |
| 20260507142451 | 48 | 251 | 0.0 | 0.0 | 0.00 | 0.01 | 0.01 | 88 | 1017.1 |
| 20260507141948 | 48 | 43 | 0.0 | 0.0 | 0.00 | 0.01 | 0.01 | 89 | 1017.2 |
| 20260507141444 | 47 | 258 | 0.0 | 0.0 | 0.00 | 0.01 | 0.01 | 89 | 1017.2 |
| 20260507140941 | 47 | 109 | 0.0 | 3.0 | 0.00 | 0.01 | 0.01 | 89 | 1017.2 |
| 20260507140438 | 47 | 258 | 0.0 | 0.0 | 0.00 | 0.01 | 0.01 | 88 | 1017.3 |
| 20260507135936 | 47 | 163 | 0.0 | 0.0 | 0.00 | 0.01 | 0.01 | 89 | 1017.3 |
| 20260507135432 | 47 | 124 | 0.0 | 0.0 | 0.00 | 0.01 | 0.01 | 89 | 1017.1 |
| 20260507134930 | 47 | 245 | 0.0 | 0.0 | 0.00 | 0.01 | 0.01 | 90 | 1017.1 |
| 20260507134426 | 47 | 238 | 0.0 | 0.0 | 0.00 | 0.01 | 0.01 | 91 | 1017.0 |
| 20260507133922 | 47 | 333 | 0.0 | 0.0 | 0.00 | 0.01 | 0.01 | 91 | 1017.3 |
| 20260507133418 | 47 | 248 | 0.0 | 1.0 | 0.00 | 0.01 | 0.01 | 92 | 1017.2 |
| 20260507132917 | 47 | 59 | 0.0 | 0.0 | 0.00 | 0.01 | 0.01 | 92 | 1017.1 |
| 20260507132413 | 47 | 71 | 0.0 | 2.0 | 0.00 | 0.01 | 0.01 | 92 | 1017.3 |
| 20260507131909 | 47 | 75 | 0.0 | 0.0 | 0.00 | 0.01 | 0.01 | 93 | 1017.3 |
| 20260507131406 | 46 | 268 | 0.0 | 0.0 | 0.00 | 0.01 | 0.01 | 93 | 1017.6 |
| 20260507130903 | 47 | 69 | 0.0 | 1.0 | 0.00 | 0.01 | 0.01 | 93 | 1017.5 |
| 20260507130400 | 47 | 192 | 0.0 | 0.0 | 0.00 | 0.01 | 0.01 | 93 | 1017.5 |
| 20260507125859 | 47 | 256 | 0.0 | 2.0 | 0.00 | 0.01 | 0.01 | 94 | 1017.4 |
| 20260507125356 | 47 | 31 | 0.0 | 1.0 | 0.00 | 0.01 | 0.01 | 94 | 1017.1 |
| 20260507124854 | 47 | 89 | 0.0 | 0.0 | 0.00 | 0.01 | 0.01 | 94 | 1017.3 |
| 20260507124349 | 47 | 110 | 0.0 | 0.0 | 0.00 | 0.01 | 0.01 | 95 | 1017.2 |
| 20260507123848 | 47 | 266 | 0.0 | 0.0 | 0.00 | 0.01 | 0.01 | 95 | 1017.6 |
| 20260507123345 | 47 | 291 | 0.0 | 0.0 | 0.00 | 0.01 | 0.01 | 95 | 1017.5 |
| 20260507122841 | 47 | 23 | 0.0 | 4.0 | 0.00 | 0.01 | 0.01 | 96 | 1017.2 |
| 20260507122337 | 47 | 287 | 0.0 | 0.0 | 0.00 | 0.01 | 0.01 | 96 | 1017.4 |
| 20260507121833 | 47 | 253 | 0.0 | 1.0 | 0.00 | 0.01 | 0.01 | 96 | 1017.4 |
| 20260507121329 | 47 | 124 | 0.0 | 0.0 | 0.00 | 0.01 | 0.01 | 96 | 1017.6 |
| 20260507120826 | 47 | 226 | 1.0 | 2.0 | 0.00 | 0.01 | 0.01 | 96 | 1017.4 |
| 20260507120322 | 47 | 90 | 0.0 | 2.0 | 0.00 | 0.01 | 0.01 | 96 | 1017.1 |
| 20260507115818 | 47 | 303 | 0.0 | 0.0 | 0.07 | 0.01 | 0.01 | 96 | 1017.1 |
| 20260507115314 | 47 | 73 | 0.0 | 3.0 | 0.07 | 0.01 | 0.01 | 96 | 1017.0 |
| 20260507114810 | 47 | 252 | 0.0 | 0.0 | 0.00 | 0.00 | 0.00 | 96 | 1017.0 |
| 20260507114307 | 47 | 254 | 2.0 | 3.0 | 0.00 | 0.00 | 0.00 | 96 | 1017.1 |
| 20260507113805 | 47 | 165 | 0.0 | 4.0 | 0.00 | 0.00 | 0.00 | 96 | 1016.9 |
| 20260507113301 | 49 | 129 | 2.0 | 4.0 | 0.00 | 0.00 | 0.00 | 97 | 1016.9 |
| 20260507112759 | 49 | 239 | 0.0 | 1.0 | 0.00 | 0.00 | 0.00 | 97 | 1016.9 |
| 20260507112256 | 49 | 209 | 0.0 | 2.0 | 0.00 | 0.00 | 0.00 | 97 | 1016.9 |
| 20260507111754 | 48 | 258 | 0.0 | 0.0 | 0.00 | 0.00 | 0.00 | 97 | 1017.0 |